{"data":{"norad_id":60476,"intl_designator":"2024-149J","name":"QUBE","alt_names":[],"object_type":"PAYLOAD","status":"ACTIVE","operator":null,"country":"GER","launch_date":"2024-08-16","launch_site_code":"AFWTR","launch_vehicle":null,"mission":null,"orbit_class":"UNKNOWN","rcs_meters":null,"size_class":null,"mass_kg":null,"dimensions":null,"purposes":[],"wikipedia_slug":null,"has_3d_model":false,"image_url":null,"decayed_at":null,"tle_current":{"epoch":"2026-09-22T21:11:30.410304Z","epoch_age_seconds":80424,"freshness":"FRESH","line1":"1 60476U 24149J   26265.88299086  .00022719  00000+0  38002-3 0  9990","line2":"2 60476  97.3752 354.5037 0001997 196.1905 163.9284 15.51904689117596","mean_motion":15.51904689,"eccentricity":0.0001997,"inclination_deg":97.3752,"raan_deg":354.5037,"arg_perigee_deg":196.1905,"mean_anomaly_deg":163.9284,"bstar":0.00038002,"rev_number":11759,"period_min":92.789203499855,"perigee_km":409.80944454237,"apogee_km":412.52109186829,"semimajor_km":6789.3022682053,"source":"CELESTRAK","updated_at":"2026-09-23T09:00:20.653419Z"}}}